48P/Johnson (2025)

Japanese version
Home page
Updated on March 23, 2024

---------------------------------------------------------------------

* Profile

* Pictures

* Orbital Elements

Epoch 2023 Feb. 25.0 TT = JDT 2460000.5
T 2025 Mar. 2.39812 TT                                  Rudenko
q   2.0056070            (2000.0)            P               Q
n   0.15045491     Peri.  216.74327     +0.82440953     +0.53005346
a   3.5010513      Node   110.09178     -0.45587824     +0.82968205
e   0.4271415      Incl.   12.20066     -0.33544590     +0.17513144
P   6.55
>From 2260 observations 1949 Sept. 24-2023 Mar. 27, mean residual 0".8.
     Nongravitational parameters A1 = +0.57, A2 = -0.0174.

* Finding Charts

* Magnitudes Graph

        m1 = 14.5 + 5 log d +  5.0 log r          [    ,-200]  (             - 2024 Aug. 14)
        m1 =  1.5 + 5 log d + 35   log r(t - 40)  [-200, 295]  (2024 Aug. 14 - 2025 Dec. 22)
        m1 = 14.5 + 5 log d +  5.0 log r          [ 295,    ]  (2025 Dec. 22 -             )

---------------------------------------------------------------------

The orbital elements are published on M.P.E.C. 2023-F200.
The charts are made with StellaNavigator Ver.10 (AstroArts).
The magnitudes graphs are made with Comet for Windows.

---------------------------------------------------------------------

Copyright(C) Seiichi Yoshida (comet@aerith.net). All rights reserved.